Zurück zum Katalog

STARLINK-37324

AktivKommunikationSSO
NORAD 68749·PAYLOAD·🇺🇸 United States

Gestartet Apr 15, 2026 von Vandenberg Space Force Base

Loading…

Nächste Überflüge (nächste 24 Stunden)

TLE

AktuellSource: CelesTrak SupGP

Epoche: Sep 14, 2026, 23:14 UTC

1 68749C 26082X   26257.96854167  .00078932  00000+0  24508-2 0  2576
2 68749  97.2845 120.2429 0001911  92.8665 156.7290 15.33390691    10

Verfolge STARLINK-37324 in Echtzeit mit AllMySat

Download on the App Store